User: anonymous   Login
Location: Peebles
(55.6412°N, 3.1714°W)
Time: 10:31:04
(UTC+00:00)
Language:

FENGYUN 1C DEB - Orbit

View from above orbital plane
View from above orbital plane
View from above satellite
View from above satellite

Ground track
Ground track

The orbit data is extracted from the following two-line orbital elements,

1 30879U 99025AXR 24054.33657816  .00009325  00000-0  22363-2 0  9993
2 30879  99.3540 195.3328 0335101  62.6260 300.8597 14.24698651524228
Epoch (UTC): 23 February 2024 08:04:40
Eccentricity: 0.0335101
inclination: 99.3540°
perigee height: 568 km
apogee height: 1050 km
right ascension of ascending node: 195.3328°
argument of perigee: 62.6260°
revolutions per day: 14.24698651
mean anomaly at epoch: 300.8597°
orbit number at epoch: 52422

The dashed part of the orbit path shows where the satellite is in the earth's shadow,  

DLR